Time,TemperatureF,DewpointF,PressureIn,WindDirection,WindDirectionDegrees,WindSpeedMPH,WindSpeedGustMPH,Humidity,HourlyPrecipIn,Conditions,Clouds,dailyrainin,SoftwareType,DateUTC
2013-03-01 00:00:00,31.1,18.6,29.95,NE,56,5.8,5.8,59,0.00,,---,0.00,VWS V14.01,2013-03-01 05:00:00,
2013-03-01 00:01:00,31.1,18.6,29.95,NE,56,0.0,5.8,59,0.00,,---,0.00,VWS V14.01,2013-03-01 05:01:00,
2013-03-01 00:02:00,31.1,18.6,29.95,NE,56,0.0,5.8,59,0.00,,---,0.00,VWS V14.01,2013-03-01 05:02:00,
2013-03-01 00:04:00,31.1,18.6,29.95,NE,56,0.0,5.8,59,0.00,,---,0.00,VWS V14.01,2013-03-01 05:04:00,
2013-03-01 00:07:00,31.1,18.2,29.95,NE,56,2.7,9.6,58,0.00,,---,0.00,VWS V14.01,2013-03-01 05:07:00,
2013-03-01 00:12:00,31.1,18.6,29.95,NE,56,3.6,9.6,59,0.00,,---,0.00,VWS V14.01,2013-03-01 05:12:00,
2013-03-01 00:17:00,31.1,18.6,29.95,NE,56,0.0,9.6,59,0.00,,---,0.00,VWS V14.01,2013-03-01 05:17:00,
2013-03-01 00:22:00,30.9,18.5,29.95,NE,56,0.0,9.6,59,0.00,,---,0.00,VWS V14.01,2013-03-01 05:22:00,
2013-03-01 00:27:00,30.9,18.0,29.95,NE,56,4.0,9.6,58,0.00,,---,0.00,VWS V14.01,2013-03-01 05:27:00,
2013-03-01 00:32:00,30.7,17.9,29.95,NE,56,3.6,9.6,58,0.00,,---,0.00,VWS V14.01,2013-03-01 05:32:00,
2013-03-01 00:37:00,30.7,17.4,29.95,North,5,8.1,10.1,57,0.00,,---,0.00,VWS V14.01,2013-03-01 05:37:00,
2013-03-01 00:42:00,30.6,16.8,29.95,NNE,20,0.0,10.1,56,0.00,,---,0.00,VWS V14.01,2013-03-01 05:42:00,
2013-03-01 00:47:00,30.6,16.8,29.95,NNE,12,3.1,10.1,56,0.00,,---,0.00,VWS V14.01,2013-03-01 05:47:00,
2013-03-01 00:52:00,30.6,16.8,29.95,NNE,27,0.0,10.1,56,0.00,,---,0.00,VWS V14.01,2013-03-01 05:52:00,
2013-03-01 00:57:00,30.6,17.2,29.95,NNE,20,0.0,10.1,57,0.00,,---,0.00,VWS V14.01,2013-03-01 05:57:00,
2013-03-01 01:02:00,30.4,16.6,29.95,NW,312,0.0,10.5,56,0.00,,---,0.00,VWS V14.01,2013-03-01 06:02:00,
2013-03-01 01:07:00,30.4,16.6,29.95,NNE,25,0.0,10.5,56,0.00,,---,0.00,VWS V14.01,2013-03-01 06:07:00,
2013-03-01 01:13:00,30.4,16.6,29.95,NNE,16,0.0,10.5,56,0.00,,---,0.00,VWS V14.01,2013-03-01 06:13:00,
2013-03-01 01:18:00,30.4,16.6,29.95,North,357,6.3,10.5,56,0.00,,---,0.00,VWS V14.01,2013-03-01 06:18:00,
2013-03-01 01:23:00,30.4,16.6,29.95,NNE,24,0.0,10.5,56,0.00,,---,0.00,VWS V14.01,2013-03-01 06:23:00,
2013-03-01 01:28:00,30.4,16.6,29.95,NE,49,4.0,10.5,56,0.00,,---,0.00,VWS V14.01,2013-03-01 06:28:00,
2013-03-01 01:33:00,30.4,16.6,29.95,NE,39,0.0,10.5,56,0.00,,---,0.00,VWS V14.01,2013-03-01 06:33:00,
2013-03-01 01:38:00,30.2,16.9,29.95,North,3,4.0,10.5,57,0.00,,---,0.00,VWS V14.01,2013-03-01 06:38:00,
2013-03-01 01:43:00,30.2,16.9,29.95,North,5,0.0,10.5,57,0.00,,---,0.00,VWS V14.01,2013-03-01 06:43:00,
2013-03-01 01:48:00,30.2,16.9,29.95,ENE,59,0.0,10.5,57,0.00,,---,0.00,VWS V14.01,2013-03-01 06:48:00,
2013-03-01 01:53:00,30.2,16.9,29.95,ENE,59,0.0,10.5,57,0.00,,---,0.00,VWS V14.01,2013-03-01 06:53:00,
2013-03-01 01:58:00,30.2,16.9,29.95,NE,52,0.0,10.5,57,0.00,,---,0.00,VWS V14.01,2013-03-01 06:58:00,
2013-03-01 02:03:00,30.2,16.5,29.95,NNE,13,0.0,5.4,56,0.00,,---,0.00,VWS V14.01,2013-03-01 07:03:00,
2013-03-01 02:08:00,30.0,16.3,29.95,NNE,20,5.4,10.5,56,0.00,,---,0.00,VWS V14.01,2013-03-01 07:08:00,
2013-03-01 02:13:00,30.0,16.3,29.95,North,0,8.3,10.5,56,0.00,,---,0.00,VWS V14.01,2013-03-01 07:13:00,
2013-03-01 02:18:00,30.0,16.3,29.98,NNE,18,4.0,10.5,56,0.00,,---,0.00,VWS V14.01,2013-03-01 07:18:00,
2013-03-01 02:23:00,30.0,16.3,29.98,NNE,15,5.4,11.0,56,0.00,,---,0.00,VWS V14.01,2013-03-01 07:23:00,
2013-03-01 02:28:00,29.8,16.1,29.98,NE,43,0.0,11.0,56,0.00,,---,0.00,VWS V14.01,2013-03-01 07:28:00,
2013-03-01 02:33:00,29.8,16.1,29.95,ENE,58,5.4,11.0,56,0.00,,---,0.00,VWS V14.01,2013-03-01 07:33:00,
2013-03-01 02:38:00,29.8,16.1,29.95,NNE,12,2.2,12.3,56,0.00,,---,0.00,VWS V14.01,2013-03-01 07:38:00,
2013-03-01 02:43:00,29.7,16.0,29.95,ENE,58,0.0,12.3,56,0.00,,---,0.00,VWS V14.01,2013-03-01 07:43:00,
2013-03-01 02:48:00,29.7,16.0,29.95,NE,46,0.0,12.3,56,0.00,,---,0.00,VWS V14.01,2013-03-01 07:48:00,
2013-03-01 02:53:00,29.7,16.0,29.95,NE,46,0.0,12.3,56,0.00,,---,0.00,VWS V14.01,2013-03-01 07:53:00,
2013-03-01 02:59:00,29.7,16.0,29.95,NE,55,2.7,12.3,56,0.00,,---,0.00,VWS V14.01,2013-03-01 07:59:00,
2013-03-01 03:04:00,29.7,16.0,29.95,NE,54,0.0,4.9,56,0.00,,---,0.00,VWS V14.01,2013-03-01 08:04:00,
2013-03-01 03:09:00,29.7,16.0,29.95,NE,54,4.0,4.9,56,0.00,,---,0.00,VWS V14.01,2013-03-01 08:09:00,
2013-03-01 03:14:00,29.7,16.0,29.95,North,357,5.8,8.3,56,0.00,,---,0.00,VWS V14.01,2013-03-01 08:14:00,
2013-03-01 03:19:00,29.5,15.8,29.95,North,6,2.2,8.7,56,0.00,,---,0.00,VWS V14.01,2013-03-01 08:19:00,
2013-03-01 03:24:00,29.5,15.8,29.95,NNE,27,5.4,8.7,56,0.00,,---,0.00,VWS V14.01,2013-03-01 08:24:00,
2013-03-01 03:29:00,29.5,15.8,29.95,NE,44,0.0,8.7,56,0.00,,---,0.00,VWS V14.01,2013-03-01 08:29:00,
2013-03-01 03:34:00,29.5,15.8,29.95,NE,42,6.3,8.7,56,0.00,,---,0.00,VWS V14.01,2013-03-01 08:34:00,
2013-03-01 03:39:00,29.5,15.8,29.95,NE,52,4.0,8.7,56,0.00,,---,0.00,VWS V14.01,2013-03-01 08:39:00,
2013-03-01 03:44:00,29.5,15.8,29.95,North,6,0.0,8.7,56,0.00,,---,0.00,VWS V14.01,2013-03-01 08:44:00,
2013-03-01 03:49:00,29.5,16.2,29.95,NNE,15,0.0,8.7,57,0.00,,---,0.00,VWS V14.01,2013-03-01 08:49:00,
2013-03-01 03:54:00,29.3,16.1,29.95,NE,43,0.0,8.7,57,0.00,,---,0.00,VWS V14.01,2013-03-01 08:54:00,
2013-03-01 03:59:00,29.5,16.2,29.95,NE,48,0.0,8.7,57,0.00,,---,0.00,VWS V14.01,2013-03-01 08:59:00,
2013-03-01 04:04:00,29.5,16.2,29.95,North,353,6.3,8.1,57,0.00,,---,0.00,VWS V14.01,2013-03-01 09:04:00,
2013-03-01 04:09:00,29.3,16.1,29.95,NNE,17,4.0,12.8,57,0.00,,---,0.00,VWS V14.01,2013-03-01 09:09:00,
2013-03-01 04:14:00,29.3,16.1,29.95,NNE,26,0.0,12.8,57,0.00,,---,0.00,VWS V14.01,2013-03-01 09:14:00,
2013-03-01 04:19:00,29.3,16.1,29.95,NNE,24,4.0,12.8,57,0.00,,---,0.00,VWS V14.01,2013-03-01 09:19:00,
2013-03-01 04:24:00,29.3,16.1,29.95,NE,49,0.0,12.8,57,0.00,,---,0.00,VWS V14.01,2013-03-01 09:24:00,
2013-03-01 04:29:00,29.3,16.5,29.95,North,357,3.6,12.8,58,0.00,,---,0.00,VWS V14.01,2013-03-01 09:29:00,
2013-03-01 04:34:00,29.3,16.5,29.95,NNE,16,0.0,12.8,58,0.00,,---,0.00,VWS V14.01,2013-03-01 09:34:00,
2013-03-01 04:39:00,29.3,16.5,29.95,NNE,18,0.0,12.8,58,0.00,,---,0.00,VWS V14.01,2013-03-01 09:39:00,
2013-03-01 04:44:00,29.3,16.1,29.95,NE,46,0.0,12.8,57,0.00,,---,0.00,VWS V14.01,2013-03-01 09:44:00,
2013-03-01 04:49:00,29.1,16.3,29.95,NE,46,0.0,12.8,58,0.00,,---,0.00,VWS V14.01,2013-03-01 09:49:00,
2013-03-01 04:55:00,29.1,16.3,29.95,NE,46,0.0,12.8,58,0.00,,---,0.00,VWS V14.01,2013-03-01 09:55:00,
2013-03-01 05:00:00,29.1,16.3,29.95,NNE,32,4.0,5.8,58,0.00,,---,0.00,VWS V14.01,2013-03-01 10:00:00,
2013-03-01 05:05:00,29.1,16.3,29.98,NNE,25,0.0,6.3,58,0.00,,---,0.00,VWS V14.01,2013-03-01 10:05:00,
2013-03-01 05:10:00,29.1,16.3,29.98,NE,45,0.0,6.3,58,0.00,,---,0.00,VWS V14.01,2013-03-01 10:10:00,
2013-03-01 05:15:00,29.1,16.3,29.98,NE,45,2.7,6.3,58,0.00,,---,0.00,VWS V14.01,2013-03-01 10:15:00,
2013-03-01 05:20:00,29.1,16.3,29.98,NE,45,0.0,6.3,58,0.00,,---,0.00,VWS V14.01,2013-03-01 10:20:00,
2013-03-01 05:25:00,29.1,16.3,29.98,NE,45,0.0,6.3,58,0.00,,---,0.00,VWS V14.01,2013-03-01 10:25:00,
2013-03-01 05:30:00,29.1,16.3,29.98,NE,45,4.0,6.3,58,0.00,,---,0.00,VWS V14.01,2013-03-01 10:30:00,
2013-03-01 05:35:00,29.1,15.9,29.98,NE,47,5.8,6.3,57,0.00,,---,0.00,VWS V14.01,2013-03-01 10:35:00,
2013-03-01 05:40:00,29.1,15.9,29.98,NNE,24,0.0,6.3,57,0.00,,---,0.00,VWS V14.01,2013-03-01 10:40:00,
2013-03-01 05:45:00,29.1,15.9,29.98,NE,55,0.0,6.3,57,0.00,,---,0.00,VWS V14.01,2013-03-01 10:45:00,
2013-03-01 05:50:00,29.1,15.9,29.95,North,353,3.6,6.3,57,0.00,,---,0.00,VWS V14.01,2013-03-01 10:50:00,
2013-03-01 05:55:00,29.1,15.9,29.95,NE,45,4.0,6.3,57,0.00,,---,0.00,VWS V14.01,2013-03-01 10:55:00,
2013-03-01 06:00:00,29.1,16.3,29.98,NE,45,4.0,4.0,58,0.00,,---,0.00,VWS V14.01,2013-03-01 11:00:00,
2013-03-01 06:05:00,28.9,16.2,29.98,NE,45,0.0,4.0,58,0.00,,---,0.00,VWS V14.01,2013-03-01 11:05:00,
2013-03-01 06:10:00,28.9,16.2,29.98,NE,45,0.0,8.7,58,0.00,,---,0.00,VWS V14.01,2013-03-01 11:10:00,
2013-03-01 06:15:00,28.9,16.2,29.98,NE,51,2.2,8.7,58,0.00,,---,0.00,VWS V14.01,2013-03-01 11:15:00,
2013-03-01 06:20:00,28.9,15.7,29.98,NE,44,0.0,8.7,57,0.00,,---,0.00,VWS V14.01,2013-03-01 11:20:00,
2013-03-01 06:25:00,28.8,15.6,29.98,NE,48,0.0,8.7,57,0.00,,---,0.00,VWS V14.01,2013-03-01 11:25:00,
2013-03-01 06:30:00,28.8,16.0,29.98,NNE,19,4.9,8.7,58,0.00,,---,0.00,VWS V14.01,2013-03-01 11:30:00,
2013-03-01 06:35:00,28.8,15.6,29.98,NE,46,2.7,8.7,57,0.00,,---,0.00,VWS V14.01,2013-03-01 11:35:00,
2013-03-01 06:41:00,28.8,15.6,29.98,NNE,31,2.7,9.6,57,0.00,,---,0.00,VWS V14.01,2013-03-01 11:41:00,
2013-03-01 06:46:00,28.8,15.6,29.98,NE,43,0.0,9.6,57,0.00,,---,0.00,VWS V14.01,2013-03-01 11:46:00,
2013-03-01 06:51:00,28.8,15.6,29.98,NNE,28,5.8,9.6,57,0.00,,---,0.00,VWS V14.01,2013-03-01 11:51:00,
2013-03-01 06:56:00,28.6,15.4,29.98,NNE,14,5.8,9.6,57,0.00,,---,0.00,VWS V14.01,2013-03-01 11:56:00,
2013-03-01 07:01:00,28.6,14.9,29.98,NE,52,3.6,4.0,56,0.00,,---,0.00,VWS V14.01,2013-03-01 12:01:00,
2013-03-01 07:06:00,28.6,14.9,29.98,NNE,22,0.0,10.5,56,0.00,,---,0.00,VWS V14.01,2013-03-01 12:06:00,
2013-03-01 07:11:00,28.6,14.9,29.98,North,9,8.3,10.5,56,0.00,,---,0.00,VWS V14.01,2013-03-01 12:11:00,
2013-03-01 07:16:00,28.6,14.5,29.98,NNE,14,0.0,10.5,55,0.00,,---,0.00,VWS V14.01,2013-03-01 12:16:00,
2013-03-01 07:21:00,28.4,14.3,29.98,NE,48,0.0,10.5,55,0.00,,---,0.00,VWS V14.01,2013-03-01 12:21:00,
2013-03-01 07:26:00,28.4,14.3,29.98,NE,49,3.6,10.5,55,0.00,,---,0.00,VWS V14.01,2013-03-01 12:26:00,
2013-03-01 07:31:00,28.4,14.3,30.01,ENE,58,3.1,10.5,55,0.00,,---,0.00,VWS V14.01,2013-03-01 12:31:00,
2013-03-01 07:36:00,28.2,13.7,30.01,ENE,58,3.6,10.5,54,0.00,,---,0.00,VWS V14.01,2013-03-01 12:36:00,
2013-03-01 07:41:00,28.2,13.7,30.01,ENE,58,0.0,10.5,54,0.00,,---,0.00,VWS V14.01,2013-03-01 12:41:00,
2013-03-01 07:46:00,28.0,13.1,30.01,ENE,58,6.3,10.5,53,0.00,,---,0.00,VWS V14.01,2013-03-01 12:46:00,
2013-03-01 07:51:00,28.0,13.1,30.01,ENE,58,0.0,10.5,53,0.00,,---,0.00,VWS V14.01,2013-03-01 12:51:00,
2013-03-01 07:56:00,28.0,13.1,30.01,ENE,58,5.8,10.5,53,0.00,,---,0.00,VWS V14.01,2013-03-01 12:56:00,
2013-03-01 08:01:00,27.9,12.9,30.01,NNE,17,6.3,10.5,53,0.00,,---,0.00,VWS V14.01,2013-03-01 13:01:00,
2013-03-01 08:06:00,27.9,12.9,30.01,NNE,14,3.6,10.5,53,0.00,,---,0.00,VWS V14.01,2013-03-01 13:06:00,
2013-03-01 08:11:00,27.9,13.4,30.01,NE,45,2.2,10.5,54,0.00,,---,0.00,VWS V14.01,2013-03-01 13:11:00,
2013-03-01 08:16:00,27.9,12.9,30.01,NNE,25,4.9,10.5,53,0.00,,---,0.00,VWS V14.01,2013-03-01 13:16:00,
2013-03-01 08:21:00,27.9,12.9,30.01,NNE,16,3.1,10.5,53,0.00,,---,0.00,VWS V14.01,2013-03-01 13:21:00,
2013-03-01 08:26:00,27.9,12.5,30.01,NNE,21,4.9,10.5,52,0.00,,---,0.00,VWS V14.01,2013-03-01 13:26:00,
2013-03-01 08:31:00,27.9,12.5,30.01,ENE,57,5.8,10.5,52,0.00,,---,0.00,VWS V14.01,2013-03-01 13:31:00,
2013-03-01 08:36:00,27.9,12.0,30.01,NNE,23,4.0,10.5,51,0.00,,---,0.00,VWS V14.01,2013-03-01 13:36:00,
2013-03-01 08:41:00,27.9,12.5,30.01,NE,48,3.6,10.5,52,0.00,,---,0.00,VWS V14.01,2013-03-01 13:41:00,
2013-03-01 08:46:00,27.9,12.0,30.04,NE,49,4.0,10.5,51,0.00,,---,0.00,VWS V14.01,2013-03-01 13:46:00,
2013-03-01 08:51:00,27.9,11.5,30.04,NNE,12,3.1,10.5,50,0.00,,---,0.00,VWS V14.01,2013-03-01 13:51:00,
2013-03-01 08:56:00,28.0,11.7,30.04,NE,49,0.0,10.5,50,0.00,,---,0.00,VWS V14.01,2013-03-01 13:56:00,
2013-03-01 09:01:00,28.0,11.7,30.04,NE,51,3.1,4.0,50,0.00,,---,0.00,VWS V14.01,2013-03-01 14:01:00,
2013-03-01 09:06:00,28.0,11.7,30.04,NE,51,5.8,5.8,50,0.00,,---,0.00,VWS V14.01,2013-03-01 14:06:00,
2013-03-01 09:11:00,28.0,11.7,30.04,NNE,24,0.0,8.1,50,0.00,,---,0.00,VWS V14.01,2013-03-01 14:11:00,
2013-03-01 09:16:00,28.0,11.7,30.04,NE,49,0.0,8.1,50,0.00,,---,0.00,VWS V14.01,2013-03-01 14:16:00,
2013-03-01 09:21:00,28.2,12.3,30.04,NE,49,4.0,8.1,51,0.00,,---,0.00,VWS V14.01,2013-03-01 14:21:00,
2013-03-01 09:27:00,28.0,12.6,30.04,NNE,20,5.4,10.5,52,0.00,,---,0.00,VWS V14.01,2013-03-01 14:27:00,
2013-03-01 09:32:00,27.9,12.9,30.01,NNE,13,2.7,10.5,53,0.00,,---,0.00,VWS V14.01,2013-03-01 14:32:00,
2013-03-01 09:37:00,27.9,12.9,30.01,NNE,28,3.6,10.5,53,0.00,,---,0.00,VWS V14.01,2013-03-01 14:37:00,
2013-03-01 09:42:00,27.9,12.9,30.01,NNE,18,4.0,10.5,53,0.00,,---,0.00,VWS V14.01,2013-03-01 14:42:00,
2013-03-01 09:47:00,27.9,12.5,30.04,NE,47,2.7,10.5,52,0.00,,---,0.00,VWS V14.01,2013-03-01 14:47:00,
2013-03-01 09:52:00,27.9,12.5,30.04,NE,44,8.3,10.5,52,0.00,,---,0.00,VWS V14.01,2013-03-01 14:52:00,
2013-03-01 09:57:00,27.7,12.3,30.04,ENE,60,4.9,10.5,52,0.00,,---,0.00,VWS V14.01,2013-03-01 14:57:00,
2013-03-01 10:02:00,27.7,12.3,30.04,ENE,60,5.8,8.3,52,0.00,,---,0.00,VWS V14.01,2013-03-01 15:02:00,
2013-03-01 10:07:00,27.9,12.0,30.04,ENE,60,3.6,8.3,51,0.00,,---,0.00,VWS V14.01,2013-03-01 15:07:00,
2013-03-01 10:12:00,28.0,12.6,30.04,ENE,60,7.6,8.3,52,0.00,,---,0.00,VWS V14.01,2013-03-01 15:12:00,
2013-03-01 10:17:00,28.4,13.0,30.04,NE,36,7.6,8.3,52,0.00,,---,0.00,VWS V14.01,2013-03-01 15:17:00,
2013-03-01 10:22:00,28.4,12.0,30.04,NNE,18,5.4,10.1,50,0.00,,---,0.00,VWS V14.01,2013-03-01 15:22:00,
2013-03-01 10:27:00,28.6,12.6,30.04,North,3,8.3,10.1,51,0.00,,---,0.00,VWS V14.01,2013-03-01 15:27:00,
2013-03-01 10:32:00,28.6,12.6,30.04,NE,45,2.7,10.1,51,0.00,,---,0.00,VWS V14.01,2013-03-01 15:32:00,
2013-03-01 10:37:00,28.4,12.0,30.04,NE,54,5.4,10.1,50,0.00,,---,0.00,VWS V14.01,2013-03-01 15:37:00,
2013-03-01 10:42:00,28.6,12.2,30.04,NNE,28,3.6,10.1,50,0.00,,---,0.00,VWS V14.01,2013-03-01 15:42:00,
2013-03-01 10:47:00,28.6,11.7,30.04,ENE,57,5.8,10.5,49,0.00,,---,0.00,VWS V14.01,2013-03-01 15:47:00,
2013-03-01 10:52:00,28.2,11.3,30.04,NE,56,4.0,10.5,49,0.00,,---,0.00,VWS V14.01,2013-03-01 15:52:00,
2013-03-01 10:57:00,28.2,11.3,30.04,NNE,22,5.8,10.5,49,0.00,,---,0.00,VWS V14.01,2013-03-01 15:57:00,
2013-03-01 11:02:00,28.2,11.3,30.04,ENE,57,0.0,4.0,49,0.00,,---,0.00,VWS V14.01,2013-03-01 16:02:00,
2013-03-01 11:07:00,28.4,12.0,30.04,North,11,4.0,10.1,50,0.00,,---,0.00,VWS V14.01,2013-03-01 16:07:00,
2013-03-01 11:12:00,28.4,11.5,30.04,NE,47,0.0,12.3,49,0.00,,---,0.00,VWS V14.01,2013-03-01 16:12:00,
2013-03-01 11:17:00,28.4,11.5,30.04,NNE,18,6.3,12.3,49,0.00,,---,0.00,VWS V14.01,2013-03-01 16:17:00,
2013-03-01 11:22:00,28.4,11.5,30.04,NE,47,5.4,12.3,49,0.00,,---,0.00,VWS V14.01,2013-03-01 16:22:00,
2013-03-01 11:27:00,28.4,11.0,30.04,NE,51,3.6,12.3,48,0.00,,---,0.00,VWS V14.01,2013-03-01 16:27:00,
2013-03-01 11:32:00,28.4,11.0,30.04,NE,53,3.1,12.3,48,0.00,,---,0.00,VWS V14.01,2013-03-01 16:32:00,
2013-03-01 11:42:00,28.6,11.2,30.04,North,357,6.3,12.3,48,0.00,,---,0.00,VWS V14.01,2013-03-01 16:42:00,
2013-03-01 11:47:00,28.6,11.2,30.07,WNW,294,4.9,12.3,48,0.00,,---,0.00,VWS V14.01,2013-03-01 16:47:00,
2013-03-01 11:57:00,28.6,11.2,30.07,NE,44,5.4,12.3,48,0.00,,---,0.00,VWS V14.01,2013-03-01 16:57:00,
2013-03-01 12:03:00,28.8,11.3,30.07,North,6,6.3,8.7,48,0.00,,---,0.00,VWS V14.01,2013-03-01 17:03:00,
2013-03-01 12:08:00,28.8,11.3,30.07,NNE,19,2.7,8.7,48,0.00,,---,0.00,VWS V14.01,2013-03-01 17:08:00,
2013-03-01 12:13:00,28.9,11.5,30.07,NE,42,6.3,10.5,48,0.00,,---,0.00,VWS V14.01,2013-03-01 17:13:00,
2013-03-01 12:19:00,28.9,11.0,30.07,North,5,7.6,10.5,46,0.00,,---,0.00,VWS V14.01,2013-03-01 17:19:00,
2013-03-01 12:24:00,29.1,11.1,30.07,NE,41,5.4,10.5,46,0.00,,---,0.00,VWS V14.01,2013-03-01 17:24:00,
2013-03-01 12:29:00,29.3,11.8,30.07,NNE,13,8.1,14.1,48,0.00,,---,0.00,VWS V14.01,2013-03-01 17:29:00,
2013-03-01 12:34:00,29.1,11.1,30.07,NNE,18,6.3,14.1,46,0.00,,---,0.00,VWS V14.01,2013-03-01 17:34:00,
2013-03-01 12:39:00,28.9,11.0,30.07,NNE,16,0.0,14.1,46,0.00,,---,0.00,VWS V14.01,2013-03-01 17:39:00,
2013-03-01 12:46:00,29.1,11.1,30.07,NNE,21,0.0,14.1,46,0.00,,---,0.00,VWS V14.01,2013-03-01 17:46:00,
2013-03-01 12:51:00,29.5,12.0,30.07,North,9,6.3,14.1,48,0.00,,---,0.00,VWS V14.01,2013-03-01 17:51:00,
2013-03-01 12:56:00,29.5,11.5,30.07,North,0,3.6,14.1,46,0.00,,---,0.00,VWS V14.01,2013-03-01 17:56:00,
2013-03-01 13:03:00,29.1,11.1,30.07,NNE,22,5.8,8.7,46,0.00,,---,0.00,VWS V14.01,2013-03-01 18:03:00,
2013-03-01 13:08:00,29.3,11.3,30.07,NE,34,4.5,8.7,46,0.00,,---,0.00,VWS V14.01,2013-03-01 18:08:00,
2013-03-01 13:13:00,29.5,11.5,30.07,North,7,4.0,8.7,46,0.00,,---,0.00,VWS V14.01,2013-03-01 18:13:00,
2013-03-01 13:18:00,29.5,10.9,30.07,NNE,22,7.6,8.7,45,0.00,,---,0.00,VWS V14.01,2013-03-01 18:18:00,
2013-03-01 13:23:00,29.3,10.8,30.07,NNE,21,6.3,8.7,45,0.00,,---,0.00,VWS V14.01,2013-03-01 18:23:00,
2013-03-01 13:29:00,29.5,10.9,30.07,NNE,17,3.6,8.7,45,0.00,,---,0.00,VWS V14.01,2013-03-01 18:29:00,
2013-03-01 13:34:00,29.5,10.9,30.07,North,0,5.4,11.0,45,0.00,,---,0.00,VWS V14.01,2013-03-01 18:34:00,
2013-03-01 13:39:00,29.5,10.9,30.07,NE,42,11.0,14.1,45,0.00,,---,0.00,VWS V14.01,2013-03-01 18:39:00,
2013-03-01 13:44:00,29.5,10.9,30.07,NNE,21,0.0,14.1,45,0.00,,---,0.00,VWS V14.01,2013-03-01 18:44:00,
2013-03-01 13:49:00,29.7,11.1,30.07,North,5,8.3,14.1,45,0.00,,---,0.00,VWS V14.01,2013-03-01 18:49:00,
2013-03-01 13:54:00,29.7,11.1,30.07,NNE,29,3.1,14.1,45,0.00,,---,0.00,VWS V14.01,2013-03-01 18:54:00,
2013-03-01 13:59:00,29.7,11.1,30.07,NNE,14,2.7,14.1,45,0.00,,---,0.00,VWS V14.01,2013-03-01 18:59:00,
2013-03-01 14:04:00,29.7,11.1,30.07,NNE,33,3.1,8.3,45,0.00,,---,0.00,VWS V14.01,2013-03-01 19:04:00,
2013-03-01 14:12:00,29.5,10.9,30.07,NE,36,5.4,8.7,45,0.00,,---,0.00,VWS V14.01,2013-03-01 19:12:00,
2013-03-01 14:19:00,29.5,10.9,30.07,NE,55,3.1,8.7,45,0.00,,---,0.00,VWS V14.01,2013-03-01 19:19:00,
2013-03-01 14:24:00,29.7,10.6,30.07,NE,40,4.0,8.7,44,0.00,,---,0.00,VWS V14.01,2013-03-01 19:24:00,
2013-03-01 14:29:00,29.7,10.6,30.07,NNE,29,5.4,8.7,44,0.00,,---,0.00,VWS V14.01,2013-03-01 19:29:00,
2013-03-01 14:35:00,29.5,10.9,30.04,NNW,346,3.1,8.7,45,0.00,,---,0.00,VWS V14.01,2013-03-01 19:35:00,
2013-03-01 14:41:00,29.5,10.9,30.04,NNE,26,3.6,10.1,45,0.00,,---,0.00,VWS V14.01,2013-03-01 19:41:00,
2013-03-01 14:46:00,29.7,11.1,30.07,NNE,31,3.1,10.1,45,0.00,,---,0.00,VWS V14.01,2013-03-01 19:46:00,
2013-03-01 14:51:00,29.7,11.1,30.07,NE,51,0.0,10.1,45,0.00,,---,0.00,VWS V14.01,2013-03-01 19:51:00,
2013-03-01 14:56:00,29.7,11.1,30.07,NNE,15,5.4,10.1,45,0.00,,---,0.00,VWS V14.01,2013-03-01 19:56:00,
2013-03-01 15:01:00,29.5,10.9,30.07,ENE,63,2.2,5.8,45,0.00,,---,0.00,VWS V14.01,2013-03-01 20:01:00,
2013-03-01 15:06:00,29.3,10.8,30.07,ENE,64,2.7,5.8,45,0.00,,---,0.00,VWS V14.01,2013-03-01 20:06:00,
2013-03-01 15:11:00,29.3,10.8,30.07,North,357,8.1,8.7,45,0.00,,---,0.00,VWS V14.01,2013-03-01 20:11:00,
2013-03-01 15:16:00,29.1,10.6,30.07,NE,48,0.0,8.7,45,0.00,,---,0.00,VWS V14.01,2013-03-01 20:16:00,
2013-03-01 15:21:00,29.3,10.8,30.07,ENE,57,0.0,8.7,45,0.00,,---,0.00,VWS V14.01,2013-03-01 20:21:00,
2013-03-01 15:26:00,29.1,10.1,30.07,North,2,5.8,8.7,44,0.00,,---,0.00,VWS V14.01,2013-03-01 20:26:00,
2013-03-01 15:31:00,28.9,10.5,30.07,NNE,28,5.8,8.7,45,0.00,,---,0.00,VWS V14.01,2013-03-01 20:31:00,
2013-03-01 15:36:00,28.9,10.5,30.07,North,0,3.6,8.7,45,0.00,,---,0.00,VWS V14.01,2013-03-01 20:36:00,
2013-03-01 15:41:00,28.9,10.5,30.07,ENE,57,0.0,8.7,45,0.00,,---,0.00,VWS V14.01,2013-03-01 20:41:00,
2013-03-01 15:46:00,28.9,10.5,30.07,NNE,28,4.9,8.7,45,0.00,,---,0.00,VWS V14.01,2013-03-01 20:46:00,
2013-03-01 15:51:00,28.8,10.3,30.07,ENE,59,5.4,9.2,45,0.00,,---,0.00,VWS V14.01,2013-03-01 20:51:00,
2013-03-01 15:56:00,28.8,10.8,30.07,NE,54,0.0,9.2,46,0.00,,---,0.00,VWS V14.01,2013-03-01 20:56:00,
2013-03-01 16:01:00,28.8,10.8,30.07,NNE,24,3.1,3.6,46,0.00,,---,0.00,VWS V14.01,2013-03-01 21:01:00,
2013-03-01 16:06:00,28.6,10.6,30.07,ENE,58,5.8,8.3,46,0.00,,---,0.00,VWS V14.01,2013-03-01 21:06:00,
2013-03-01 16:11:00,28.6,10.6,30.07,ENE,57,3.6,8.3,46,0.00,,---,0.00,VWS V14.01,2013-03-01 21:11:00,
2013-03-01 16:16:00,28.6,10.6,30.07,ENE,57,0.0,8.3,46,0.00,,---,0.00,VWS V14.01,2013-03-01 21:16:00,
2013-03-01 16:21:00,28.6,10.6,30.07,ENE,57,0.0,8.3,46,0.00,,---,0.00,VWS V14.01,2013-03-01 21:21:00,
2013-03-01 16:26:00,28.6,10.6,30.07,NE,55,3.6,8.3,46,0.00,,---,0.00,VWS V14.01,2013-03-01 21:26:00,
2013-03-01 16:31:00,28.2,10.3,30.07,NE,45,3.1,9.6,46,0.00,,---,0.00,VWS V14.01,2013-03-01 21:31:00,
2013-03-01 16:36:00,27.9,10.0,30.07,North,357,3.1,9.6,46,0.00,,---,0.00,VWS V14.01,2013-03-01 21:36:00,
2013-03-01 16:41:00,27.9,10.0,30.07,NNE,29,5.4,9.6,46,0.00,,---,0.00,VWS V14.01,2013-03-01 21:41:00,
2013-03-01 16:47:00,27.9,10.5,30.07,NNE,31,4.9,9.6,48,0.00,,---,0.00,VWS V14.01,2013-03-01 21:47:00,
2013-03-01 16:52:00,27.9,10.5,30.07,NE,54,0.0,9.6,48,0.00,,---,0.00,VWS V14.01,2013-03-01 21:52:00,
2013-03-01 16:57:00,27.9,10.5,30.07,NE,51,0.0,9.6,48,0.00,,---,0.00,VWS V14.01,2013-03-01 21:57:00,
2013-03-01 17:02:00,27.9,11.0,30.07,NNE,28,0.0,4.0,49,0.00,,---,0.00,VWS V14.01,2013-03-01 22:02:00,
2013-03-01 17:07:00,27.9,11.0,30.07,NE,53,0.0,4.0,49,0.00,,---,0.00,VWS V14.01,2013-03-01 22:07:00,
2013-03-01 17:12:00,27.7,10.8,30.07,NNE,16,0.0,8.1,49,0.00,,---,0.00,VWS V14.01,2013-03-01 22:12:00,
2013-03-01 17:17:00,27.5,10.7,30.07,NE,38,3.6,8.1,49,0.00,,---,0.00,VWS V14.01,2013-03-01 22:17:00,
2013-03-01 17:22:00,27.1,10.3,30.07,NNE,17,2.7,10.1,49,0.00,,---,0.00,VWS V14.01,2013-03-01 22:22:00,
2013-03-01 17:27:00,27.0,10.2,30.07,ENE,62,0.0,10.1,49,0.00,,---,0.00,VWS V14.01,2013-03-01 22:27:00,
2013-03-01 17:32:00,27.0,10.2,30.07,East,86,3.6,10.1,49,0.00,,---,0.00,VWS V14.01,2013-03-01 22:32:00,
2013-03-01 17:37:00,26.8,10.0,30.07,NNE,16,4.0,10.5,49,0.00,,---,0.00,VWS V14.01,2013-03-01 22:37:00,
2013-03-01 17:42:00,26.8,10.0,30.07,NE,43,4.9,10.5,49,0.00,,---,0.00,VWS V14.01,2013-03-01 22:42:00,
2013-03-01 17:47:00,26.8,10.0,30.07,ENE,65,0.0,10.5,49,0.00,,---,0.00,VWS V14.01,2013-03-01 22:47:00,
2013-03-01 17:52:00,26.6,9.9,30.07,ENE,65,2.2,10.5,49,0.00,,---,0.00,VWS V14.01,2013-03-01 22:52:00,
2013-03-01 17:57:00,26.6,9.9,30.07,ENE,64,6.3,10.5,49,0.00,,---,0.00,VWS V14.01,2013-03-01 22:57:00,
2013-03-01 18:02:00,26.6,10.3,30.07,ENE,64,4.0,6.3,50,0.00,,---,0.00,VWS V14.01,2013-03-01 23:02:00,
2013-03-01 18:07:00,26.6,10.3,30.07,ENE,64,0.0,6.3,50,0.00,,---,0.00,VWS V14.01,2013-03-01 23:07:00,
2013-03-01 18:12:00,26.4,9.7,30.07,ENE,64,0.0,8.7,49,0.00,,---,0.00,VWS V14.01,2013-03-01 23:12:00,
2013-03-01 18:17:00,26.4,10.2,30.07,ENE,63,10.5,10.5,50,0.00,,---,0.00,VWS V14.01,2013-03-01 23:17:00,
2013-03-01 18:22:00,26.2,10.0,30.07,NNE,21,0.0,10.5,50,0.00,,---,0.00,VWS V14.01,2013-03-01 23:22:00,
2013-03-01 18:27:00,26.2,10.0,30.07,NE,53,0.0,10.5,50,0.00,,---,0.00,VWS V14.01,2013-03-01 23:27:00,
2013-03-01 18:32:00,26.1,9.8,30.07,North,9,3.6,10.5,50,0.00,,---,0.00,VWS V14.01,2013-03-01 23:32:00,
2013-03-01 18:37:00,26.1,9.8,30.07,ENE,67,2.7,10.5,50,0.00,,---,0.00,VWS V14.01,2013-03-01 23:37:00,
2013-03-01 18:42:00,26.1,9.8,30.07,NE,46,8.1,12.8,50,0.00,,---,0.00,VWS V14.01,2013-03-01 23:42:00,
2013-03-01 18:47:00,26.1,9.8,30.07,ENE,60,0.0,12.8,50,0.00,,---,0.00,VWS V14.01,2013-03-01 23:47:00,
2013-03-01 18:52:00,26.1,9.8,30.07,NNE,14,5.8,12.8,50,0.00,,---,0.00,VWS V14.01,2013-03-01 23:52:00,
2013-03-01 18:57:00,25.9,9.7,30.07,North,0,3.1,12.8,50,0.00,,---,0.00,VWS V14.01,2013-03-01 23:57:00,
2013-03-01 19:03:00,25.9,10.1,30.10,ENE,65,0.0,5.8,51,0.00,,---,0.00,VWS V14.01,2013-03-02 00:03:00,
2013-03-01 19:08:00,25.9,10.1,30.10,ENE,65,0.0,5.8,51,0.00,,---,0.00,VWS V14.01,2013-03-02 00:08:00,
2013-03-01 19:13:00,25.9,10.1,30.10,NNE,21,9.2,9.2,51,0.00,,---,0.00,VWS V14.01,2013-03-02 00:13:00,
2013-03-01 19:18:00,25.9,10.1,30.10,ENE,66,2.7,9.2,51,0.00,,---,0.00,VWS V14.01,2013-03-02 00:18:00,
2013-03-01 19:23:00,25.9,10.1,30.10,ENE,66,0.0,9.2,51,0.00,,---,0.00,VWS V14.01,2013-03-02 00:23:00,
2013-03-01 19:28:00,25.7,10.0,30.10,ENE,65,0.0,9.2,51,0.00,,---,0.00,VWS V14.01,2013-03-02 00:28:00,
2013-03-01 19:33:00,25.7,10.0,30.10,NNE,32,4.9,9.2,51,0.00,,---,0.00,VWS V14.01,2013-03-02 00:33:00,
2013-03-01 19:38:00,25.7,10.4,30.10,NE,51,0.0,9.2,52,0.00,,---,0.00,VWS V14.01,2013-03-02 00:38:00,
2013-03-01 19:43:00,25.7,10.4,30.10,NNE,27,0.0,9.2,52,0.00,,---,0.00,VWS V14.01,2013-03-02 00:43:00,
2013-03-01 19:48:00,25.7,10.4,30.10,NE,54,0.0,9.2,52,0.00,,---,0.00,VWS V14.01,2013-03-02 00:48:00,
2013-03-01 19:53:00,25.7,10.4,30.10,NE,54,3.1,9.2,52,0.00,,---,0.00,VWS V14.01,2013-03-02 00:53:00,
2013-03-01 19:58:00,25.7,10.4,30.10,NE,55,0.0,9.2,52,0.00,,---,0.00,VWS V14.01,2013-03-02 00:58:00,
2013-03-01 20:03:00,25.7,10.4,30.10,NE,55,2.7,2.7,52,0.00,,---,0.00,VWS V14.01,2013-03-02 01:03:00,
2013-03-01 20:08:00,25.7,10.4,30.10,NE,56,3.1,6.3,52,0.00,,---,0.00,VWS V14.01,2013-03-02 01:08:00,
2013-03-01 20:13:00,25.7,10.4,30.10,NE,36,2.7,8.3,52,0.00,,---,0.00,VWS V14.01,2013-03-02 01:13:00,
2013-03-01 20:18:00,25.7,10.4,30.10,NE,55,3.6,8.3,52,0.00,,---,0.00,VWS V14.01,2013-03-02 01:18:00,
2013-03-01 20:23:00,25.7,10.4,30.10,North,357,4.5,8.3,52,0.00,,---,0.00,VWS V14.01,2013-03-02 01:23:00,
2013-03-01 20:28:00,25.9,10.6,30.10,NNE,24,0.0,8.3,52,0.00,,---,0.00,VWS V14.01,2013-03-02 01:28:00,
2013-03-01 20:33:00,25.7,10.4,30.10,NE,52,0.0,8.3,52,0.00,,---,0.00,VWS V14.01,2013-03-02 01:33:00,
2013-03-01 20:38:00,25.9,11.1,30.10,NE,49,0.0,8.3,53,0.00,,---,0.00,VWS V14.01,2013-03-02 01:38:00,
2013-03-01 20:43:00,25.9,10.6,30.10,NE,50,0.0,8.3,52,0.00,,---,0.00,VWS V14.01,2013-03-02 01:43:00,
2013-03-01 20:48:00,25.9,10.6,30.10,North,7,3.1,8.3,52,0.00,,---,0.00,VWS V14.01,2013-03-02 01:48:00,
2013-03-01 20:53:00,25.9,10.6,30.10,North,8,0.0,8.3,52,0.00,,---,0.00,VWS V14.01,2013-03-02 01:53:00,
2013-03-01 20:58:00,25.9,10.6,30.10,NNE,24,0.0,8.3,52,0.00,,---,0.00,VWS V14.01,2013-03-02 01:58:00,
2013-03-01 21:03:00,25.9,11.1,30.10,NNE,31,0.0,5.4,53,0.00,,---,0.00,VWS V14.01,2013-03-02 02:03:00,
2013-03-01 21:08:00,25.9,11.1,30.10,NE,52,0.0,6.3,53,0.00,,---,0.00,VWS V14.01,2013-03-02 02:08:00,
2013-03-01 21:13:00,25.9,11.1,30.10,North,1,7.6,7.6,53,0.00,,---,0.00,VWS V14.01,2013-03-02 02:13:00,
2013-03-01 21:18:00,25.9,11.1,30.07,NNE,12,0.0,7.6,53,0.00,,---,0.00,VWS V14.01,2013-03-02 02:18:00,
2013-03-01 21:24:00,25.9,10.6,30.07,NE,54,0.0,7.6,52,0.00,,---,0.00,VWS V14.01,2013-03-02 02:24:00,
2013-03-01 21:29:00,25.9,11.1,30.07,NE,54,0.0,7.6,53,0.00,,---,0.00,VWS V14.01,2013-03-02 02:29:00,
2013-03-01 21:34:00,25.9,11.1,30.07,NE,54,4.0,7.6,53,0.00,,---,0.00,VWS V14.01,2013-03-02 02:34:00,
2013-03-01 21:39:00,25.9,11.1,30.07,North,9,0.0,7.6,53,0.00,,---,0.00,VWS V14.01,2013-03-02 02:39:00,
2013-03-01 21:44:00,25.9,11.1,30.07,NE,50,0.0,7.6,53,0.00,,---,0.00,VWS V14.01,2013-03-02 02:44:00,
2013-03-01 21:49:00,25.9,11.1,30.10,ENE,62,0.0,7.6,53,0.00,,---,0.00,VWS V14.01,2013-03-02 02:49:00,
2013-03-01 21:54:00,25.9,11.1,30.10,ENE,62,7.6,7.6,53,0.00,,---,0.00,VWS V14.01,2013-03-02 02:54:00,
2013-03-01 21:59:00,25.9,10.6,30.10,ENE,62,0.0,7.6,52,0.00,,---,0.00,VWS V14.01,2013-03-02 02:59:00,
2013-03-01 22:04:00,25.9,10.6,30.10,ENE,61,0.0,6.3,52,0.00,,---,0.00,VWS V14.01,2013-03-02 03:04:00,
2013-03-01 22:09:00,25.9,11.1,30.10,ENE,61,0.0,6.3,53,0.00,,---,0.00,VWS V14.01,2013-03-02 03:09:00,
2013-03-01 22:14:00,25.9,10.6,30.10,ENE,61,0.0,6.3,52,0.00,,---,0.00,VWS V14.01,2013-03-02 03:14:00,
2013-03-01 22:19:00,25.9,11.1,30.10,ENE,61,0.0,6.3,53,0.00,,---,0.00,VWS V14.01,2013-03-02 03:19:00,
2013-03-01 22:24:00,25.9,10.6,30.10,ENE,61,4.9,6.3,52,0.00,,---,0.00,VWS V14.01,2013-03-02 03:24:00,
2013-03-01 22:29:00,25.9,10.6,30.10,ENE,61,0.0,7.2,52,0.00,,---,0.00,VWS V14.01,2013-03-02 03:29:00,
2013-03-01 22:34:00,25.9,10.6,30.10,ENE,61,0.0,8.7,52,0.00,,---,0.00,VWS V14.01,2013-03-02 03:34:00,
2013-03-01 22:39:00,25.9,11.1,30.10,ENE,60,3.6,8.7,53,0.00,,---,0.00,VWS V14.01,2013-03-02 03:39:00,
2013-03-01 22:44:00,25.9,11.1,30.10,ENE,60,3.1,8.7,53,0.00,,---,0.00,VWS V14.01,2013-03-02 03:44:00,
2013-03-01 22:49:00,25.9,11.1,30.10,ENE,60,0.0,8.7,53,0.00,,---,0.00,VWS V14.01,2013-03-02 03:49:00,
2013-03-01 22:54:00,25.9,11.1,30.10,ENE,59,2.7,8.7,53,0.00,,---,0.00,VWS V14.01,2013-03-02 03:54:00,
2013-03-01 22:59:00,25.9,11.1,30.10,ENE,59,0.0,0.0,53,0.00,,---,0.00,VWS V14.01,2013-03-02 03:59:00,
2013-03-01 23:04:00,25.7,10.9,30.10,ENE,59,0.0,5.8,53,0.00,,---,0.00,VWS V14.01,2013-03-02 04:04:00,
2013-03-01 23:09:00,25.7,10.9,30.10,ENE,58,5.4,8.3,53,0.00,,---,0.00,VWS V14.01,2013-03-02 04:09:00,
2013-03-01 23:14:00,25.7,10.9,30.10,ENE,58,2.7,8.3,53,0.00,,---,0.00,VWS V14.01,2013-03-02 04:14:00,
2013-03-01 23:19:00,25.7,10.9,30.10,ENE,58,0.0,8.3,53,0.00,,---,0.00,VWS V14.01,2013-03-02 04:19:00,
2013-03-01 23:25:00,25.7,10.9,30.10,ENE,57,0.0,8.3,53,0.00,,---,0.00,VWS V14.01,2013-03-02 04:25:00,
2013-03-01 23:30:00,25.7,10.9,30.10,ENE,57,2.7,8.3,53,0.00,,---,0.00,VWS V14.01,2013-03-02 04:30:00,
2013-03-01 23:35:00,25.5,11.2,30.10,ENE,57,2.7,8.3,54,0.00,,---,0.00,VWS V14.01,2013-03-02 04:35:00,
2013-03-01 23:40:00,25.5,11.2,30.10,NE,56,5.4,8.3,54,0.00,,---,0.00,VWS V14.01,2013-03-02 04:40:00,
2013-03-01 23:45:00,25.5,10.8,30.10,NE,56,0.0,8.3,53,0.00,,---,0.00,VWS V14.01,2013-03-02 04:45:00,
2013-03-01 23:50:00,25.5,10.8,30.07,NE,56,0.0,8.3,53,0.00,,---,0.00,VWS V14.01,2013-03-02 04:50:00,
2013-03-01 23:55:00,25.3,9.6,30.07,NE,55,3.1,8.3,51,0.00,,---,0.00,VWS V14.01,2013-03-02 04:55:00,